sat.trackr.live / text

‹ back to catalog

STARLINK-31822

NORAD 59752 · 2024-090Y

PAYLOAD ACTIVE UNKNOWN

§ Identity

Operator
Country
US
Launch date
2024-05-13
Launch site
AFETR
Launch vehicle
Mass (kg)
RCS (m²)

Purposes: comms

External: N2YO · Heavens-Above · Gunter

§ Orbital elements

Epoch: 2026-09-21T09:43:12.441504Z

Period
94.27 min
Inclination
43.0032°
Eccentricity
0.0001124
Mean motion
15.27573422 rev/d
Perigee alt
482.3 km
Apogee alt
483.8 km
Semi-major
6,861.2 km
B*
6.6260e-6
RAAN
158.0737°
Arg perigee
275.8231°
Mean anomaly
84.2493°
Rev number
13,336

§ Raw data

STARLINK-318221 59752U 24090Y   26264.40500511 -.00000080  00000+0  66260-5 0  99922 59752  43.0032 158.0737 0001124 275.8231  84.2493 15.27573422133363

JSON: /api/v1/satellites/59752 · /tle

For live sub-satellite position, see the globe view (requires WebGL).

§ Visibility from observer

Set your observer location to see the next 7 days of passes ≥ 10°. The values pass through the URL so the page stays shareable.

No JS? Fill the form by hand. The geolocation button needs JavaScript.